Location: LDNL
(36.4545°S, 141.6685°E)
Time: 13:28:21
(UTC+11:00)

ISS - Pass Details

Date: 10 December 2021
Orbit: 413 x 422 km, 51.6° (Epoch: 26 January)

Event Time Altitude Azimuth Distance (km) Brightness Sun altitude
Rises 05:36:47 0° 219° (SW) 2,384 0.0 -6.2°
Reaches altitude 10° 05:39:16 10° 201° (SSW) 1,516 -0.7 -5.8°
Maximum altitude 05:41:53 20° 151° (SSE) 1,031 -0.8 -5.4°
Drops below altitude 10° 05:44:31 10° 100° (E) 1,509 0.4 -4.9°
Sets 05:46:58 0° 82° (E) 2,370 0.9 -4.5°
